Reflectivity
-20 -20 11 -5 -13 3 -20 -8 -7 -18 -20 -20 0 -20 -20 -20 -20 -20 -20 -20 -20 -8 -9 -20 -20 -14 -20 -20 -20 -20 -20 -20 -20 -20 -20 -20 -15 -18 -20 -20 -20 18 16
-20 -20 -20 -19 -10 -15 2 -18 -20 -20 -17 -17 14 10 -20 -20 -20 -20 -20 -20 11 -19 -20 -20 -20 -20 -20 -20 -20 -20 -20 -20 -20 -20 -20 -20 -20 -20 -20 -20 -20 -20 -19
-20 -20 -20 -20 3 -20 -20 -18 1 -15 -20 6 -20 -14 -20 -20 -20 -18 -20 -20 14 -14 -20 -20 -20 -20 -20 -20 -20 -20 -20 -20 -20 -20 -20 -20 -20 -20 -20 -20 -20 -20 -20
-20 -20 -20 -20 -18 -20 -20 -20 -4 -20 -20 -20 -20 -20 -20 -14 5 -20 -15 -8 16 -20 -20 -20 -20 -20 -20 -20 -20 -20 -20 -20 -20 -20 -20 -20 -1 4 -20 -20 -1 -3 -20
-20 -20 7 -2 -7 -20 -20 -20 -20 -13 -20 -20 -20 -20 -20 12 14 5 -15 10 -20 -20 -20 -20 -20 -20 -20 -20 -20 -20 -20 -20 -20 -20 -20 -20 -20 10 -11 -6 -10 5 5
-20 -20 -14 -19 -20 -20 -20 -20 -20 -20 -20 -20 -20 -20 -20 9 12 -19 5 9 -10 -20 -20 -20 -20 -20 -20 -20 -20 -20 -20 -20 -20 -20 -20 -20 -20 2 9 10 11 -15 9
-20 -20 -20 -20 -20 -20 -20 -20 -20 -20 -20 -20 -20 -20 -20 3 1 1 -20 -20 -20 -20 -20 -20 -20 -20 -20 -20 -20 -20 -20 -20 -20 -20 -20 -20 -20 -19 -15 -19 -1 6 4
-20 -20 -20 -20 -20 -20 -20 -20 -20 -20 -20 -20 -20 -20 -20 -1 -3 -20 -20 -20 -20 -20 -20 -20 -20 -20 -20 -20 -20 -20 -20 -20 -20 -20 -20 -20 -20 12 -15 -20 -20 -20 -6
-20 -20 -20 -20 -9 -20 -20 -20 -20 -7 -20 -20 -20 -20 -20 6 -3 -20 -20 -20 -20 -20 -20 -20 -20 -20 -20 -20 -20 -20 -20 -20 -20 -20 -20 -20 -20 8 -13 -20 -20 -20 -3
-20 -20 -20 -20 2 2 -20 -20 -20 9 -20 -20 -20 -20 -20 -20 -20 -20 -20 -20 -20 -20 -20 -20 -20 -20 -20 -20 -20 -20 -20 -20 -20 -20 -20 -20 -20 -14 -18 -20 -20 -20 -20
-20 -20 -20 -20 -13 -8 -20 4 -20 -20 -20 -20 -20 -20 -20 -20 -20 -20 -20 -20 -20 -3 -16 -20 -20 -20 -20 -20 -20 -20 -20 -20 -20 -20 -20 -20 -20 -20 -20 -20 -20 -20 -20
-20 -20 -20 -20 -20 -20 -20 -20 -20 -20 -20 -20 -20 -20 -20 -20 -20 -20 -20 -20 -20 -20 -14 -20 -20 -20 -20 -20 -20 -20 -20 -20 -20 -20 -20 -20 -20 -20 -20 -20 -20 -20 -20
-20 -20 -20 -20 -20 -20 -20 -20 -20 -20 -20 -20 -20 -20 -20 -20 -20 -20 -20 -20 -20 -20 -19 -19 -20 -20 -20 -20 -20 -20 -20 -20 -20 -20 -20 -20 -20 -20 -20 -20 -20 -20 -20
-20 -20 -20 -20 -20 -20 -20 -20 -20 -20 -20 -20 -20 -20 -20 -20 -20 -20 -20 -20 -20 -20 -20 -20 -20 -20 -20 -20 -20 -20 -20 -20 -20 -20 -20 -20 -20 -20 -20 -20 -20 -20 -20
-20 -20 -20 -20 -20 -20 -20 -20 -20 -20 -20 -20 -20 -20 -20 -20 -20 -20 -20 -20 -20 -20 -20 -20 -20 -20 -20 -20 -20 -20 -20 -20 -20 -20 -20 -20 -20 -20 -20 -20 -20 -20 -20
-20 -20 -20 -20 -20 -20 -20 -20 -20 -20 -20 -20 -20 -20 -20 -20 -20 -20 -20 -20 -20 -20 -20 -20 -20 -20 -20 -20 -20 -20 -20 -20 -20 -20 -20 -20 -20 -20 -20 -20 -20 -20 -20
-20 -20 -20 -20 -20 -20 -20 -20 -20 -20 -20 -20 -20 -20 -20 -20 -20 -20 -20 -20 -20 -20 -20 -20 -20 -20 -20 -20 -20 -20 -20 -20 -20 -20 -20 -20 -20 -20 -20 -20 -20 -20 -20
-20 -20 -20 -20 -20 -20 -20 -20 -20 -20 -20 -20 -20 -20 -20 -20 -20 -20 -20 -20 -20 -20 -20 -20 -20 -20 -20 -20 -20 -20 -20 -20 -20 -20 -20 -20 -20 -20 -20 -20 -20 -20 -20
-20 -20 -20 -20 -20 -20 -20 -20 -20 -20 -20 -20 -20 -20 -20 -20 -20 -20 -20 -20 -20 -20 -20 -20 -20 -20 -20 -20 -20 -20 -20 -20 -20 -20 -20 -20 -20 -20 -20 -20 -20 -20 -20
-20 -20 -20 -20 -20 -20 -20 -20 -20 -20 -20 -20 -20 -20 -20 -20 -20 -20 -20 -20 -20 -20 -20 -20 -20 -20 -20 -20 -20 -20 -20 -20 -20 -20 -20 -20 -20 -20 -20 -20 -20 -20 -20
-20 -20 -20 -20 -20 -20 -20 -20 -20 -20 -20 -20 -20 -20 18 -20 13 -20 -20 5 -10 -20 -20 -20 -20 -20 11 -20 28 -20 -20 -20 -20 -20 -20 -20 -20 -20 -20 -20 -20 -20 -20
-20 -20 -20 -20 -20 -20 -20 -20 -20 -20 -20 -20 -20 -20 -20 -20 -20 14 -20 -20 -18 -7 -14 -20 -18 -20 -20 -15 25 -20 -20 -20 -20 -20 -20 -20 -20 -20 -20 7 -20 -20 -20
-20 -20 -20 -20 -20 -20 -20 -20 -20 -20 -20 -20 -20 -20 -20 -20 -20 -20 -20 -20 -20 -20 -20 -8 -20 -16 17 2 25 22 -9 -20 -20 -20 -20 -20 -20 -20 -20 -7 -3 5 -16
-20 -20 -20 -20 -20 -20 -20 -20 -20 -20 -20 -20 -20 -20 -20 -20 -20 -20 -20 -20 -20 -20 -20 -20 -20 -20 -2 -20 11 18 19 14 13 -20 -20 -20 -20 -20 -20 -19 -20 3 10
-20 -20 -20 -20 -20 -20 -20 -20 -20 -20 -20 -20 -20 -20 -20 -20 -20 -20 -20 -20 -20 -20 -18 -20 -20 -20 -3 17 -17 -17 17 15 14 5 -18 -18 22 6 -20 -20 -20 -20 -4
-20 -20 -20 -20 -20 -20 -20 -20 -20 -20 -20 -20 -20 -20 -20 -20 -20 -20 -20 -20 -20 -20 -20 10 -3 -20 -20 -4 24 16 8 -6 18 8 16 6 26 6 -19 -20 -20 -0 5
Wind_Speed
8 10 16 17 17 16 16 16 15 15 15 16 15 13 11 10 9 9 9 8 11 15 15 14 14 13 12 12 13 13 15 15 15 13 12 11 12 13 11 10 9 6 11
10 12 17 17 17 16 15 14 14 14 14 15 16 13 9 9 9 9 10 11 15 15 15 14 13 12 11 11 12 13 14 13 13 11 7 7 8 11 11 10 9 8 11
13 12 14 17 16 15 15 14 14 14 15 14 15 13 8 8 7 11 11 11 13 16 14 13 12 11 11 11 12 12 11 9 7 4 5 2 4 9 9 9 8 7 6
13 12 13 18 16 16 14 12 12 14 14 14 13 11 9 7 10 13 12 12 15 15 14 13 12 11 10 9 10 10 9 6 1 3 0 3 4 9 10 9 10 6 2
11 10 12 18 16 16 14 12 13 15 15 13 12 12 11 10 14 14 13 16 14 13 13 12 12 10 9 8 8 8 8 7 7 8 5 5 5 9 10 10 10 15 15
8 7 12 17 16 15 13 13 15 16 14 12 12 13 12 12 15 13 14 12 12 11 12 12 11 10 7 6 5 7 9 10 9 4 5 7 5 13 15 14 13 13 14
10 9 10 16 15 14 14 15 15 16 15 12 12 13 14 13 13 14 13 12 11 12 12 12 11 9 6 5 4 6 8 8 6 4 5 4 4 11 11 10 10 11 10
13 11 11 14 14 13 13 13 15 16 16 14 12 11 12 12 12 12 12 11 11 11 12 11 10 8 6 4 3 5 6 6 5 4 5 4 8 9 9 9 9 9 8
12 11 10 10 13 12 11 11 15 16 17 14 13 11 9 9 9 10 10 11 11 11 11 11 9 8 6 4 3 3 5 7 6 4 5 3 10 11 9 9 8 8 8
9 9 8 8 10 10 7 11 12 12 15 15 13 12 10 9 8 8 6 7 8 9 10 9 8 7 6 5 4 3 5 6 5 4 4 4 10 11 7 8 8 9 9
5 7 6 6 7 7 6 7 10 11 11 12 11 11 9 4 6 6 5 7 6 7 8 7 6 6 4 5 5 4 4 2 3 3 3 9 10 9 8 8 9 8 9
6 6 7 7 7 7 6 6 5 6 5 5 5 6 4 5 4 5 6 8 7 7 8 8 6 5 3 2 3 3 1 1 4 4 3 10 10 9 8 7 8 8 8
6 5 6 8 8 7 6 4 3 3 3 3 6 5 5 4 4 3 2 3 3 6 3 4 2 1 3 2 3 3 2 1 2 3 5 11 11 10 8 9 8 8 7
7 8 7 6 6 7 4 6 5 4 4 4 5 6 4 3 4 4 3 4 4 3 4 4 3 4 4 5 4 4 5 2 3 3 4 10 11 11 10 10 10 9 9
7 7 7 10 7 8 7 5 5 5 5 6 6 7 6 5 5 5 4 4 4 4 4 4 4 4 5 6 5 6 6 4 5 3 3 8 10 12 11 11 11 11 10
7 7 7 7 8 7 7 7 7 5 6 6 6 8 10 7 6 6 6 6 5 5 5 5 6 6 5 5 6 6 6 4 5 6 4 4 10 12 13 12 12 12 11
7 7 8 8 8 9 8 7 4 4 5 6 7 9 10 9 8 8 7 7 7 6 6 4 5 4 4 4 6 5 5 6 5 6 5 4 6 11 13 14 14 14 13
7 7 7 6 8 9 8 7 6 5 5 7 7 6 10 10 8 7 8 8 7 6 6 5 5 4 5 5 5 5 5 5 6 6 5 5 4 4 9 14 16 16 15
8 7 8 7 7 7 6 4 5 5 5 5 4 5 8 9 10 8 8 7 7 6 7 6 5 4 4 4 5 5 5 5 6 4 7 6 6 5 5 10 13 14 15
4 3 1 3 5 6 4 2 2 3 3 3 4 4 7 5 7 6 5 6 6 5 6 4 6 4 4 6 5 5 4 5 4 5 7 7 6 7 7 7 6 6 13
7 8 6 5 4 2 2 2 2 4 3 3 4 8 7 6 6 5 5 4 5 6 8 7 5 6 5 2 2 2 3 5 6 5 5 7 8 9 7 7 5 4 6
4 5 6 6 3 3 2 1 1 2 3 4 3 5 5 5 6 5 6 6 6 7 7 6 6 3 3 6 4 2 3 4 5 8 5 7 9 7 8 8 6 6 6
5 5 5 5 4 2 3 1 1 2 2 2 2 3 5 6 6 7 6 5 6 5 6 6 6 9 8 4 6 4 1 7 1 2 7 7 8 7 8 9 9 8 6
3 4 4 5 5 3 3 3 3 3 3 3 2 2 4 4 6 6 7 7 7 5 7 8 7 8 4 5 2 7 3 2 5 4 2 3 4 6 6 5 8 8 8
4 4 4 5 6 6 6 4 3 2 1 2 2 4 4 5 5 5 6 6 6 6 7 6 5 7 6 8 5 2 6 3 2 3 5 3 4 4 5 8 7 8 9
4 5 5 6 5 6 6 6 5 4 3 3 3 4 4 3 4 6 5 5 6 5 6 6 6 7 7 7 5 7 6 5 9 5 5 6 4 4 3 5 7 7 6
Wind_Direction
159 154 149 145 142 141 137 136 134 131 133 126 119 110 101 98 101 106 112 109 120 111 101 98 97 97 96 94 93 92 87 83 84 82 78 71 75 83 80 77 55 83 98
141 150 150 148 145 143 139 136 143 144 132 123 116 98 106 105 110 113 117 108 118 106 102 101 98 100 100 97 96 95 93 95 96 86 70 70 77 91 88 81 71 74 82
138 148 150 148 144 139 137 146 148 142 130 113 96 107 117 118 119 125 124 109 121 110 107 103 102 103 101 101 101 102 101 102 104 76 89 63 91 104 99 89 82 88 92
135 144 152 143 142 141 144 141 142 113 99 103 115 123 123 122 130 128 122 116 116 112 110 107 108 108 106 104 107 105 96 82 89 217 328 41 53 124 107 92 83 73 118
124 134 138 139 140 145 143 138 114 107 113 123 129 133 130 118 112 127 130 121 114 115 115 114 115 112 108 104 106 102 82 53 91 105 111 82 54 95 110 92 75 60 72
118 117 137 135 144 143 136 121 115 119 125 134 137 139 139 120 109 113 108 106 124 123 123 123 122 119 114 103 92 74 64 72 106 117 102 93 88 87 85 88 79 73 63
130 133 135 139 147 145 142 136 132 134 135 141 143 146 143 133 134 134 126 133 134 134 134 136 136 133 130 122 97 74 68 74 113 112 107 102 100 97 89 71 73 74 72
140 144 147 147 150 152 151 146 149 146 143 145 148 150 151 146 145 146 144 147 147 144 146 147 146 148 151 154 111 81 80 92 115 118 122 124 112 105 98 86 84 78 74
141 144 148 155 159 157 155 154 164 157 150 151 151 152 147 146 157 161 159 161 161 157 155 154 156 162 168 178 151 119 83 120 139 156 140 138 125 115 108 102 90 87 88
141 144 151 160 165 163 159 166 174 160 154 154 156 150 147 153 166 168 167 174 171 168 165 163 166 175 185 195 191 164 98 101 148 152 143 165 139 127 123 113 104 101 97
139 152 155 158 159 147 151 166 166 160 160 158 156 155 154 159 168 169 176 184 177 177 178 177 182 191 202 222 220 199 109 123 157 157 156 158 147 137 135 126 121 118 114
161 176 169 161 150 146 160 155 159 163 162 157 152 161 159 172 178 176 182 189 195 190 193 191 194 198 193 282 302 289 91 122 171 177 173 157 153 148 145 137 132 133 129
179 176 185 177 164 166 165 161 166 161 158 157 166 172 177 174 183 192 201 200 194 202 194 202 197 200 225 247 280 299 293 217 187 205 185 165 163 159 152 150 155 151 146
166 183 195 202 176 180 151 175 179 173 173 174 189 186 172 181 186 192 196 202 199 192 196 192 192 214 232 239 249 268 272 187 194 213 229 179 171 168 166 168 169 169 162
185 187 184 188 184 189 173 178 174 187 183 192 189 197 187 192 196 183 201 199 207 194 197 204 207 223 229 230 237 223 244 197 212 206 211 205 181 177 180 179 182 183 178
204 197 179 176 171 169 188 186 188 185 191 188 198 205 204 194 193 195 198 206 213 204 208 204 205 209 218 207 235 218 232 213 209 196 203 209 193 184 188 192 193 194 191
219 202 196 182 170 168 184 189 181 197 185 197 206 205 204 201 196 191 200 207 213 208 206 203 217 216 228 226 229 216 207 220 203 204 199 205 199 192 192 201 201 200 198
200 219 215 189 182 182 180 186 184 185 183 201 206 210 211 209 194 197 204 211 207 201 206 197 207 220 224 213 214 225 211 209 211 206 201 206 204 198 204 206 206 206 204
198 207 219 212 186 196 199 193 207 211 193 201 196 196 212 215 205 197 208 208 192 202 208 206 214 196 203 217 219 232 224 215 212 193 206 209 208 205 198 215 206 207 206
98 120 126 226 239 205 202 215 207 207 236 225 218 213 216 213 207 218 216 214 184 190 211 197 213 195 200 210 214 228 233 236 220 218 202 205 209 211 205 207 203 206 201
61 74 60 78 13 131 141 168 257 239 241 222 218 224 231 231 218 209 236 243 214 196 222 214 200 207 233 153 71 306 299 260 253 225 212 209 211 212 208 205 201 193 205
71 57 78 97 59 24 69 141 176 206 234 240 248 242 242 233 242 222 211 214 198 227 224 207 202 185 220 176 174 85 280 307 252 231 199 213 215 201 211 216 204 196 195
74 55 51 31 38 101 145 103 11 6 354 336 284 273 253 237 228 220 216 212 209 196 214 219 213 201 233 205 223 176 152 229 338 284 234 214 210 201 206 205 203 203 198
113 96 64 41 31 26 29 78 123 167 196 242 277 297 300 257 246 238 232 217 220 206 218 221 216 215 212 220 215 246 266 179 203 299 286 263 219 217 210 201 200 202 199
102 81 59 57 46 29 37 45 65 36 271 279 277 293 295 307 298 265 238 231 216 212 221 211 208 202 203 227 202 171 215 236 281 209 266 294 290 216 191 199 198 198 195
73 67 60 54 38 26 35 36 41 31 340 342 338 335 331 315 322 352 311 246 234 229 213 210 218 199 207 228 222 222 211 197 226 207 237 238 242 278 241 207 200 196 180